QPF
0.01 0.03 0.01 0.00 0.00 0.00 0.00 0.00 0.00 0.00 0.00 0.00 0.00 0.00 0.00 0.00 0.00 0.00 0.00 0.00 0.00 0.00 0.00 0.00 0.00 0.00 0.00 0.00 0.00 0.00 0.00 0.00 0.00 0.00 0.00 0.00 0.00 0.00 0.00 0.00 0.00 0.00
0.21 0.10 0.08 0.04 0.01 0.01 0.01 0.00 0.00 0.00 0.00 0.00 0.00 0.00 0.00 0.00 0.00 0.00 0.00 0.00 0.00 0.00 0.00 0.00 0.00 0.00 0.00 0.00 0.00 0.00 0.00 0.00 0.00 0.00 0.00 0.00 0.00 0.00 0.00 0.00 0.00 0.00
0.16 0.03 0.05 0.04 0.12 0.27 0.14 0.02 0.03 0.00 0.00 0.00 0.00 0.00 0.00 0.00 0.00 0.00 0.00 0.00 0.00 0.00 0.00 0.00 0.00 0.00 0.00 0.00 0.00 0.00 0.00 0.00 0.00 0.00 0.00 0.00 0.00 0.00 0.00 0.00 0.00 0.00
0.10 0.13 0.27 0.25 0.48 0.54 0.47 0.22 0.02 0.00 0.00 0.00 0.00 0.00 0.00 0.00 0.00 0.00 0.00 0.00 0.00 0.00 0.00 0.00 0.00 0.00 0.00 0.00 0.00 0.00 0.00 0.00 0.00 0.00 0.00 0.00 0.00 0.00 0.00 0.00 0.00 0.00
0.04 0.23 0.36 0.53 0.33 0.10 0.10 0.06 0.00 0.00 0.00 0.00 0.00 0.00 0.00 0.00 0.00 0.00 0.00 0.00 0.00 0.00 0.00 0.00 0.00 0.00 0.00 0.00 0.00 0.00 0.00 0.00 0.00 0.00 0.00 0.00 0.00 0.00 0.00 0.00 0.00 0.00
0.67 0.63 0.57 0.52 0.21 0.19 0.03 0.12 0.12 0.01 0.01 0.07 0.01 0.00 0.00 0.00 0.00 0.00 0.00 0.00 0.00 0.00 0.00 0.00 0.00 0.00 0.00 0.00 0.00 0.00 0.00 0.00 0.00 0.00 0.00 0.00 0.00 0.00 0.00 0.00 0.00 0.00
0.46 0.33 0.33 0.44 0.40 0.15 0.10 0.25 0.06 0.05 0.21 0.18 0.01 0.02 0.02 0.03 0.00 0.00 0.00 0.00 0.00 0.00 0.00 0.00 0.00 0.00 0.00 0.00 0.00 0.00 0.00 0.00 0.00 0.00 0.00 0.00 0.00 0.00 0.00 0.00 0.00 0.00
0.40 0.36 0.22 0.07 0.06 0.02 0.03 0.13 0.26 0.35 0.09 0.02 0.01 0.04 0.12 0.03 0.00 0.00 0.00 0.00 0.00 0.00 0.00 0.00 0.00 0.00 0.00 0.00 0.00 0.00 0.00 0.00 0.00 0.00 0.00 0.00 0.00 0.00 0.00 0.00 0.00 0.00
0.44 0.26 0.02 0.06 0.17 0.31 0.54 0.67 0.22 0.29 0.16 0.11 0.16 0.17 0.09 0.24 0.08 0.10 0.02 0.01 0.00 0.00 0.00 0.00 0.00 0.00 0.00 0.00 0.00 0.00 0.00 0.00 0.00 0.00 0.00 0.00 0.00 0.00 0.00 0.00 0.00 0.00
0.03 0.04 0.15 0.04 0.14 0.35 0.58 0.55 0.45 0.32 0.29 0.28 0.41 0.27 0.13 0.25 0.10 0.22 0.08 0.05 0.04 0.02 0.00 0.00 0.00 0.00 0.00 0.00 0.00 0.00 0.00 0.00 0.00 0.00 0.00 0.00 0.00 0.00 0.00 0.00 0.00 0.00
0.01 0.01 0.00 0.00 0.00 0.06 0.23 0.38 0.27 0.16 0.17 0.18 0.18 0.23 0.11 0.13 0.20 0.16 0.17 0.12 0.05 0.02 0.00 0.00 0.00 0.00 0.00 0.00 0.00 0.00 0.00 0.00 0.00 0.00 0.00 0.00 0.00 0.00 0.00 0.00 0.00 0.00
0.00 0.00 0.00 0.00 0.00 0.00 0.01 0.05 0.11 0.14 0.07 0.11 0.14 0.38 0.51 0.17 0.06 0.09 0.04 0.03 0.01 0.00 0.00 0.00 0.00 0.00 0.00 0.00 0.00 0.00 0.00 0.00 0.00 0.00 0.00 0.00 0.00 0.00 0.00 0.00 0.00 0.00
0.00 0.00 0.00 0.00 0.00 0.00 0.00 0.02 0.06 0.09 0.09 0.08 0.08 0.10 0.09 0.12 0.12 0.05 0.06 0.03 0.02 0.00 0.00 0.00 0.00 0.00 0.00 0.00 0.00 0.00 0.00 0.00 0.00 0.00 0.00 0.00 0.00 0.00 0.00 0.00 0.00 0.00
0.01 0.00 0.00 0.00 0.00 0.00 0.01 0.03 0.02 0.05 0.08 0.09 0.09 0.07 0.06 0.12 0.12 0.18 0.11 0.03 0.01 0.02 0.00 0.00 0.01 0.02 0.00 0.00 0.00 0.00 0.00 0.00 0.00 0.00 0.00 0.00 0.00 0.00 0.00 0.00 0.00 0.00
0.04 0.01 0.00 0.01 0.00 0.00 0.03 0.02 0.01 0.01 0.02 0.04 0.07 0.08 0.09 0.08 0.08 0.10 0.16 0.22 0.11 0.02 0.00 0.00 0.01 0.01 0.01 0.00 0.01 0.01 0.00 0.00 0.00 0.00 0.00 0.00 0.00 0.00 0.00 0.00 0.00 0.00
0.08 0.04 0.05 0.01 0.09 0.08 0.08 0.02 0.00 0.00 0.00 0.01 0.01 0.05 0.05 0.03 0.04 0.07 0.09 0.15 0.15 0.11 0.05 0.03 0.01 0.01 0.02 0.02 0.02 0.03 0.02 0.01 0.00 0.00 0.00 0.00 0.00 0.00 0.00 0.00 0.00 0.00
0.21 0.08 0.22 0.02 0.02 0.24 0.17 0.09 0.11 0.12 0.07 0.05 0.02 0.01 0.03 0.05 0.04 0.03 0.05 0.05 0.06 0.07 0.06 0.02 0.00 0.01 0.02 0.03 0.03 0.03 0.03 0.01 0.00 0.00 0.00 0.00 0.00 0.00 0.00 0.00 0.00 0.00
0.12 0.09 0.10 0.16 0.16 0.08 0.05 0.12 0.30 0.21 0.16 0.12 0.32 0.18 0.11 0.04 0.04 0.05 0.09 0.07 0.06 0.06 0.04 0.02 0.01 0.04 0.02 0.04 0.05 0.03 0.02 0.01 0.00 0.00 0.00 0.00 0.00 0.00 0.00 0.00 0.00 0.00
0.23 0.15 0.25 0.13 0.07 0.05 0.07 0.17 0.21 0.16 0.31 0.15 0.12 0.09 0.19 0.23 0.15 0.09 0.09 0.08 0.08 0.07 0.07 0.04 0.03 0.01 0.02 0.03 0.05 0.04 0.03 0.02 0.00 0.00 0.00 0.00 0.00 0.00 0.00 0.00 0.00 0.00
0.23 0.21 0.22 0.21 0.20 0.24 0.19 0.11 0.06 0.05 0.05 0.13 0.22 0.20 0.29 0.26 0.27 0.27 0.22 0.19 0.15 0.10 0.11 0.11 0.10 0.04 0.01 0.02 0.03 0.04 0.03 0.02 0.01 0.00 0.00 0.00 0.00 0.00 0.00 0.00 0.00 0.00
0.01 0.16 0.22 0.17 0.22 0.07 0.08 0.08 0.06 0.07 0.04 0.05 0.07 0.13 0.15 0.21 0.17 0.29 0.19 0.20 0.25 0.28 0.20 0.13 0.09 0.05 0.02 0.03 0.03 0.04 0.04 0.02 0.01 0.00 0.00 0.00 0.00 0.00 0.00 0.00 0.00 0.00
0.00 0.00 0.02 0.04 0.06 0.04 0.08 0.06 0.10 0.14 0.02 0.05 0.11 0.15 0.25 0.14 0.13 0.13 0.15 0.23 0.33 0.24 0.20 0.16 0.12 0.05 0.03 0.04 0.05 0.06 0.06 0.05 0.02 0.01 0.00 0.00 0.00 0.00 0.00 0.00 0.00 0.00
0.00 0.00 0.00 0.00 0.01 0.07 0.05 0.09 0.09 0.09 0.05 0.22 0.20 0.35 0.26 0.18 0.08 0.07 0.16 0.40 0.26 0.27 0.22 0.18 0.13 0.10 0.07 0.05 0.05 0.06 0.07 0.06 0.04 0.01 0.00 0.00 0.00 0.00 0.00 0.00 0.00 0.00
0.00 0.00 0.00 0.00 0.04 0.11 0.17 0.10 0.07 0.04 0.01 0.01 0.00 0.00 0.00 0.00 0.01 0.02 0.03 0.04 0.10 0.14 0.10 0.16 0.06 0.06 0.07 0.07 0.08 0.08 0.08 0.07 0.05 0.02 0.00 0.00 0.00 0.00 0.00 0.00 0.00 0.00
0.00 0.00 0.00 0.00 0.02 0.07 0.09 0.06 0.04 0.01 0.01 0.00 0.00 0.00 0.00 0.00 0.00 0.00 0.00 0.01 0.04 0.14 0.25 0.23 0.19 0.11 0.07 0.04 0.04 0.04 0.04 0.03 0.02 0.01 0.01 0.00 0.00 0.00 0.00 0.00 0.00 0.00
0.00 0.00 0.00 0.00 0.00 0.01 0.02 0.06 0.05 0.02 0.01 0.01 0.01 0.00 0.00 0.00 0.00 0.00 0.00 0.00 0.02 0.05 0.06 0.08 0.03 0.02 0.02 0.05 0.09 0.09 0.09 0.10 0.09 0.04 0.02 0.00 0.00 0.00 0.00 0.00 0.00 0.00
MSLP
1017.00 1016.96 1016.96 1017.00 1016.96 1016.92 1016.80 1016.84 1016.96 1017.04 1017.20 1017.36 1017.44 1017.52 1017.52 1017.52 1017.60 1017.64 1017.76 1017.96 1018.08 1018.20 1018.28 1018.36 1018.40 1018.48 1018.44 1018.48 1018.60 1018.68 1018.76 1018.80 1018.80 1018.72 1018.68 1018.68 1018.64 1018.60 1018.60 1018.68 1018.64 1018.72
1016.96 1016.92 1016.80 1017.00 1016.96 1016.84 1016.96 1017.00 1016.88 1016.84 1017.04 1017.16 1017.32 1017.40 1017.44 1017.40 1017.48 1017.56 1017.72 1017.92 1018.04 1018.16 1018.20 1018.32 1018.40 1018.44 1018.48 1018.52 1018.60 1018.72 1018.84 1018.84 1018.84 1018.84 1018.76 1018.76 1018.80 1018.72 1018.72 1018.72 1018.76 1018.80
1017.12 1016.96 1017.00 1017.08 1017.24 1017.56 1017.68 1017.60 1017.56 1017.20 1016.80 1016.80 1016.96 1017.16 1017.28 1017.24 1017.32 1017.52 1017.60 1017.76 1018.00 1018.12 1018.20 1018.28 1018.40 1018.44 1018.52 1018.60 1018.64 1018.76 1018.84 1018.84 1018.88 1018.88 1018.80 1018.80 1018.80 1018.80 1018.88 1018.88 1018.88 1018.76
1016.76 1016.92 1017.32 1017.64 1017.64 1017.60 1017.52 1017.44 1016.96 1016.64 1016.72 1016.64 1016.68 1016.72 1016.88 1017.04 1017.16 1017.36 1017.52 1017.60 1017.84 1018.04 1018.16 1018.28 1018.36 1018.48 1018.56 1018.64 1018.68 1018.80 1018.92 1018.92 1018.88 1018.84 1018.72 1018.72 1018.80 1018.88 1018.92 1019.00 1019.00 1018.96
1016.84 1017.12 1017.28 1017.12 1016.92 1016.80 1016.92 1017.00 1016.96 1016.72 1016.52 1016.40 1016.24 1016.28 1016.48 1016.72 1016.96 1017.16 1017.32 1017.48 1017.64 1017.88 1018.08 1018.20 1018.36 1018.48 1018.56 1018.60 1018.68 1018.84 1018.96 1019.00 1019.04 1018.88 1018.84 1018.80 1018.80 1018.84 1018.88 1018.92 1018.88 1018.88
1016.88 1017.00 1016.92 1016.84 1016.68 1016.68 1016.72 1016.84 1016.88 1016.68 1016.32 1016.36 1016.28 1015.92 1015.92 1016.16 1016.52 1016.84 1017.08 1017.32 1017.52 1017.68 1017.92 1018.08 1018.20 1018.40 1018.44 1018.52 1018.64 1018.76 1018.92 1019.00 1019.00 1019.00 1018.96 1018.88 1018.88 1018.88 1018.92 1018.96 1018.92 1018.96
1016.68 1016.68 1016.60 1016.60 1016.48 1016.44 1016.44 1016.36 1016.44 1016.44 1016.56 1016.40 1016.12 1015.76 1015.76 1015.96 1016.28 1016.48 1016.76 1017.04 1017.28 1017.52 1017.68 1017.88 1018.00 1018.24 1018.32 1018.44 1018.60 1018.76 1018.88 1018.92 1019.00 1019.04 1019.04 1019.04 1018.92 1018.84 1018.96 1018.88 1018.92 1019.00
1016.44 1016.36 1016.44 1016.44 1016.44 1016.40 1016.40 1016.40 1016.40 1016.40 1016.44 1016.00 1015.80 1015.84 1015.88 1015.88 1015.92 1016.16 1016.44 1016.80 1017.08 1017.36 1017.48 1017.64 1017.76 1017.96 1018.16 1018.32 1018.48 1018.64 1018.80 1018.84 1018.96 1019.04 1019.04 1018.96 1018.92 1018.96 1019.00 1019.00 1019.04 1018.96
1016.60 1016.48 1016.40 1016.44 1016.44 1016.44 1016.40 1016.36 1016.28 1016.24 1016.36 1016.24 1016.00 1016.04 1016.20 1016.08 1016.08 1016.28 1016.44 1016.60 1017.04 1017.28 1017.44 1017.56 1017.64 1017.84 1018.04 1018.16 1018.28 1018.44 1018.60 1018.72 1018.84 1018.92 1018.88 1018.92 1018.96 1018.96 1019.04 1019.08 1019.12 1019.16
1016.52 1016.44 1016.36 1016.32 1016.28 1016.24 1016.16 1016.16 1016.00 1015.96 1016.08 1016.28 1016.20 1016.24 1016.48 1016.48 1016.32 1016.48 1016.48 1016.60 1016.96 1017.36 1017.32 1017.40 1017.60 1017.76 1017.88 1017.96 1018.08 1018.28 1018.48 1018.56 1018.72 1018.84 1018.88 1018.92 1019.00 1019.04 1019.04 1019.00 1019.04 1019.12
1016.24 1016.20 1016.20 1016.16 1016.12 1016.08 1016.04 1015.88 1015.60 1015.60 1015.84 1016.04 1016.08 1016.24 1016.48 1016.52 1016.44 1016.48 1017.16 1016.88 1017.08 1017.24 1017.16 1017.28 1017.44 1017.60 1017.68 1017.80 1017.96 1018.12 1018.24 1018.36 1018.52 1018.68 1018.80 1018.92 1018.96 1018.84 1018.84 1018.92 1019.08 1019.16
1016.24 1016.12 1016.04 1015.92 1015.92 1016.00 1015.96 1015.88 1015.76 1015.64 1015.72 1015.92 1016.12 1016.24 1016.36 1016.52 1016.60 1016.68 1016.84 1016.80 1016.72 1016.60 1016.72 1016.96 1017.16 1017.28 1017.36 1017.56 1017.76 1017.96 1018.08 1018.20 1018.40 1018.52 1018.72 1018.84 1018.84 1018.80 1018.84 1018.84 1018.92 1019.16
1016.16 1016.00 1015.92 1015.88 1015.76 1015.60 1015.68 1015.76 1015.84 1015.72 1015.72 1015.76 1015.80 1015.96 1016.12 1016.20 1016.52 1016.64 1016.44 1016.48 1016.68 1016.64 1016.56 1016.68 1016.88 1017.00 1017.16 1017.36 1017.56 1017.76 1017.88 1018.08 1018.28 1018.44 1018.60 1018.72 1018.76 1018.76 1018.84 1018.80 1018.80 1019.08
1016.32 1016.20 1016.04 1015.84 1015.72 1015.64 1015.44 1015.44 1015.56 1015.64 1015.68 1015.80 1015.80 1015.76 1015.76 1015.76 1015.88 1016.28 1016.28 1016.40 1016.56 1016.48 1016.40 1016.40 1016.60 1016.80 1016.96 1017.16 1017.40 1017.60 1017.76 1017.96 1018.12 1018.32 1018.48 1018.64 1018.72 1018.80 1018.76 1018.68 1018.88 1019.04
1016.32 1016.16 1016.00 1015.80 1015.68 1015.68 1015.72 1015.64 1015.56 1015.64 1015.72 1015.68 1015.76 1015.92 1015.92 1015.80 1015.80 1016.04 1016.00 1016.08 1016.44 1016.52 1016.48 1016.36 1016.44 1016.56 1016.72 1016.96 1017.24 1017.56 1017.72 1017.84 1018.00 1018.16 1018.36 1018.52 1018.68 1018.72 1018.76 1018.72 1018.84 1018.96
1016.24 1016.04 1015.92 1015.80 1015.72 1015.60 1015.52 1015.64 1015.68 1015.56 1015.44 1015.48 1015.56 1015.56 1015.68 1015.88 1016.00 1016.00 1016.04 1016.12 1016.32 1016.36 1016.36 1016.40 1016.40 1016.32 1016.40 1016.68 1017.00 1017.36 1017.68 1017.84 1018.00 1018.12 1018.28 1018.44 1018.52 1018.56 1018.64 1018.72 1018.76 1018.88
1016.36 1016.12 1016.00 1015.84 1015.72 1015.56 1015.40 1015.40 1015.52 1015.52 1015.44 1015.32 1015.28 1015.40 1015.44 1015.48 1015.64 1015.88 1016.00 1016.08 1016.20 1016.40 1016.52 1016.40 1016.28 1016.16 1016.12 1016.40 1016.84 1017.16 1017.52 1017.80 1017.88 1018.04 1018.16 1018.28 1018.36 1018.48 1018.56 1018.76 1018.88 1018.84
1016.36 1016.20 1015.96 1015.72 1015.68 1015.60 1015.48 1015.36 1015.32 1015.36 1015.48 1015.44 1015.36 1015.24 1015.28 1015.32 1015.40 1015.48 1015.68 1015.88 1016.04 1016.20 1016.36 1016.40 1016.44 1016.28 1016.20 1016.32 1016.64 1016.96 1017.28 1017.56 1017.72 1017.84 1018.08 1018.20 1018.32 1018.40 1018.44 1018.60 1018.84 1018.96
1016.36 1016.16 1015.96 1015.76 1015.60 1015.52 1015.44 1015.40 1015.32 1015.28 1015.20 1015.24 1015.28 1015.20 1015.20 1015.24 1015.24 1015.28 1015.32 1015.40 1015.56 1015.76 1016.04 1016.20 1016.32 1016.40 1016.48 1016.60 1016.72 1016.84 1017.04 1017.28 1017.56 1017.64 1017.84 1018.04 1018.16 1018.24 1018.40 1018.64 1018.76 1018.84
1016.28 1016.16 1015.92 1015.72 1015.56 1015.52 1015.48 1015.44 1015.36 1015.24 1015.08 1015.00 1014.96 1015.00 1014.96 1015.00 1015.04 1015.04 1015.08 1015.04 1015.00 1015.12 1015.48 1015.88 1016.12 1016.40 1016.48 1016.56 1016.76 1016.92 1017.04 1017.20 1017.48 1017.60 1017.68 1017.84 1017.96 1018.12 1018.28 1018.48 1018.68 1018.76
1016.28 1016.04 1015.92 1015.68 1015.56 1015.48 1015.40 1015.36 1015.32 1015.20 1015.12 1015.00 1014.92 1014.92 1014.92 1014.84 1014.72 1014.72 1014.80 1014.92 1015.00 1015.04 1015.16 1015.40 1015.72 1016.20 1016.36 1016.40 1016.64 1016.88 1017.04 1017.20 1017.48 1017.52 1017.60 1017.76 1017.92 1018.04 1018.12 1018.28 1018.44 1018.56
1016.36 1016.08 1015.84 1015.68 1015.56 1015.48 1015.44 1015.28 1015.16 1015.16 1015.00 1014.88 1014.88 1014.84 1014.84 1014.80 1014.68 1014.76 1014.80 1014.88 1014.92 1014.92 1015.00 1015.24 1015.52 1016.00 1016.32 1016.48 1016.68 1016.80 1017.00 1017.24 1017.40 1017.44 1017.52 1017.68 1017.84 1018.04 1018.16 1018.16 1018.20 1018.32
1016.36 1016.20 1015.92 1015.72 1015.60 1015.48 1015.32 1015.12 1015.00 1014.88 1014.88 1014.84 1014.72 1014.64 1014.64 1014.72 1014.64 1014.60 1014.64 1014.80 1014.88 1014.96 1015.04 1015.20 1015.44 1016.00 1016.44 1016.52 1016.64 1016.76 1016.96 1017.20 1017.36 1017.52 1017.60 1017.60 1017.68 1017.88 1018.08 1018.12 1018.08 1018.16
1016.36 1016.28 1016.04 1015.76 1015.60 1015.44 1015.32 1015.12 1015.04 1014.92 1014.76 1014.64 1014.60 1014.48 1014.52 1014.44 1014.40 1014.48 1014.52 1014.64 1014.76 1014.84 1014.76 1014.88 1015.12 1015.64 1015.96 1016.20 1016.48 1016.80 1016.72 1017.00 1017.28 1017.44 1017.56 1017.52 1017.60 1017.76 1017.92 1018.00 1017.92 1017.80
1016.32 1016.28 1016.12 1015.84 1015.64 1015.40 1015.28 1015.12 1014.88 1014.72 1014.56 1014.48 1014.40 1014.36 1014.28 1014.28 1014.40 1014.44 1014.44 1014.48 1014.60 1014.64 1014.60 1014.80 1015.08 1015.64 1016.12 1016.32 1016.48 1016.56 1016.60 1016.80 1017.04 1017.28 1017.32 1017.32 1017.48 1017.60 1017.72 1017.80 1017.84 1017.64
1016.32 1016.28 1016.04 1015.76 1015.56 1015.36 1015.12 1015.00 1014.84 1014.68 1014.52 1014.36 1014.20 1014.20 1014.20 1014.32 1014.36 1014.44 1014.40 1014.44 1014.52 1014.60 1014.56 1014.64 1014.88 1015.28 1015.84 1016.16 1016.44 1016.68 1016.68 1016.76 1016.88 1017.04 1016.92 1017.04 1017.32 1017.48 1017.52 1017.60 1017.72 1017.72
Thickness
5619 5620 5619 5619 5619 5620 5619 5618 5617 5616 5615 5614 5612 5611 5611 5612 5612 5611 5610 5608 5606 5605 5605 5605 5604 5604 5604 5604 5603 5602 5601 5601 5602 5602 5603 5603 5603 5604 5603 5602 5601 5601
5612 5614 5615 5615 5614 5612 5610 5609 5609 5610 5611 5610 5609 5608 5608 5608 5608 5607 5607 5605 5603 5601 5602 5601 5601 5600 5600 5600 5600 5599 5598 5598 5599 5599 5600 5600 5600 5600 5600 5600 5600 5599
5607 5608 5608 5606 5603 5602 5600 5600 5602 5606 5608 5608 5607 5605 5604 5605 5605 5604 5603 5602 5600 5598 5597 5597 5597 5596 5596 5596 5596 5596 5595 5595 5596 5596 5597 5597 5598 5597 5597 5597 5597 5597
5604 5601 5598 5596 5595 5597 5598 5599 5601 5605 5606 5605 5605 5604 5603 5602 5601 5600 5599 5599 5597 5594 5593 5593 5592 5592 5592 5592 5592 5591 5591 5591 5592 5593 5594 5594 5595 5594 5594 5593 5593 5594
5597 5594 5593 5593 5596 5598 5597 5597 5598 5600 5602 5601 5602 5603 5602 5601 5599 5597 5596 5595 5594 5592 5591 5590 5589 5588 5588 5588 5588 5587 5587 5587 5587 5589 5590 5591 5591 5591 5591 5591 5591 5591
5591 5589 5590 5591 5594 5596 5595 5595 5594 5595 5598 5598 5599 5601 5602 5600 5597 5595 5593 5592 5591 5590 5588 5587 5586 5585 5585 5584 5584 5583 5583 5583 5583 5584 5586 5586 5588 5588 5588 5588 5588 5588
5587 5587 5588 5588 5590 5591 5591 5592 5591 5591 5593 5594 5596 5598 5599 5598 5596 5593 5591 5590 5589 5587 5586 5585 5584 5583 5582 5581 5580 5580 5579 5579 5580 5580 5581 5582 5583 5584 5585 5585 5585 5585
5584 5585 5585 5585 5586 5586 5586 5587 5587 5587 5588 5591 5594 5595 5594 5595 5594 5591 5589 5587 5585 5584 5583 5582 5582 5581 5579 5578 5577 5576 5576 5575 5575 5576 5577 5578 5579 5580 5581 5581 5581 5581
5579 5580 5581 5581 5581 5581 5581 5581 5582 5583 5583 5585 5588 5588 5588 5589 5588 5587 5585 5583 5581 5579 5579 5578 5578 5578 5576 5575 5575 5573 5572 5572 5572 5572 5573 5574 5575 5575 5576 5577 5577 5578
5574 5576 5576 5577 5577 5577 5577 5578 5580 5581 5580 5580 5581 5582 5581 5581 5582 5581 5579 5578 5576 5574 5574 5574 5574 5574 5573 5572 5572 5570 5570 5569 5569 5568 5570 5571 5571 5572 5573 5573 5574 5574
5571 5572 5572 5573 5573 5573 5574 5575 5577 5578 5578 5577 5577 5577 5576 5575 5577 5575 5572 5571 5571 5570 5571 5571 5570 5570 5570 5569 5567 5566 5566 5566 5566 5565 5566 5566 5568 5569 5570 5570 5570 5570
5567 5569 5568 5569 5569 5569 5569 5570 5572 5574 5574 5573 5573 5573 5572 5571 5571 5570 5568 5567 5567 5568 5569 5568 5567 5567 5567 5566 5564 5562 5562 5562 5562 5562 5562 5563 5564 5565 5566 5566 5566 5566
5563 5564 5565 5566 5566 5567 5567 5566 5566 5567 5568 5569 5569 5570 5569 5568 5566 5565 5565 5566 5564 5565 5566 5566 5565 5565 5564 5563 5561 5558 5558 5558 5558 5558 5557 5558 5560 5561 5562 5563 5563 5562
5557 5558 5560 5561 5562 5563 5563 5563 5562 5562 5563 5564 5565 5565 5565 5566 5565 5562 5563 5563 5561 5560 5562 5563 5563 5562 5561 5560 5557 5555 5554 5553 5553 5553 5552 5553 5555 5556 5557 5559 5559 5558
5553 5554 5555 5557 5558 5558 5558 5558 5558 5558 5558 5559 5559 5560 5560 5560 5560 5560 5560 5559 5557 5557 5558 5558 5559 5559 5557 5556 5553 5551 5550 5549 5549 5548 5548 5548 5549 5551 5553 5554 5555 5554
5548 5549 5551 5552 5554 5554 5555 5555 5554 5554 5555 5556 5556 5556 5555 5555 5555 5555 5555 5555 5553 5552 5552 5553 5554 5554 5555 5553 5551 5548 5546 5545 5544 5543 5543 5544 5545 5546 5547 5548 5549 5550
5542 5544 5546 5547 5549 5550 5552 5553 5552 5551 5551 5552 5553 5552 5552 5553 5552 5551 5551 5550 5549 5548 5547 5548 5550 5551 5551 5550 5547 5544 5542 5540 5540 5539 5539 5540 5540 5541 5542 5543 5544 5545
5536 5538 5540 5542 5544 5545 5547 5549 5549 5549 5548 5548 5549 5549 5549 5550 5550 5549 5549 5548 5547 5546 5544 5544 5545 5546 5547 5545 5543 5541 5539 5537 5536 5536 5536 5536 5536 5536 5537 5538 5539 5539
5531 5533 5535 5537 5539 5540 5542 5543 5544 5546 5546 5546 5546 5546 5546 5546 5546 5547 5547 5546 5546 5545 5543 5542 5542 5541 5541 5540 5539 5538 5536 5534 5533 5533 5533 5533 5533 5533 5533 5533 5533 5534
5527 5528 5530 5531 5534 5535 5537 5538 5539 5541 5542 5544 5543 5543 5543 5543 5544 5545 5545 5545 5546 5546 5543 5541 5539 5537 5537 5536 5535 5534 5533 5531 5529 5529 5529 5529 5529 5529 5529 5529 5529 5529
5523 5524 5526 5527 5529 5530 5531 5533 5535 5536 5538 5540 5540 5540 5540 5541 5542 5542 5542 5542 5542 5543 5543 5542 5538 5535 5534 5533 5532 5530 5529 5528 5526 5526 5526 5526 5525 5525 5525 5526 5526 5526
5517 5519 5521 5523 5524 5525 5526 5529 5530 5532 5534 5535 5536 5537 5537 5538 5539 5538 5538 5537 5538 5539 5539 5538 5536 5532 5530 5530 5528 5526 5526 5524 5522 5522 5523 5522 5522 5521 5522 5522 5523 5523
5512 5514 5516 5518 5519 5520 5522 5524 5526 5528 5530 5532 5533 5534 5534 5535 5535 5536 5535 5533 5533 5534 5534 5533 5532 5528 5526 5525 5524 5523 5522 5521 5519 5518 5518 5519 5519 5518 5517 5518 5519 5520
5508 5509 5511 5513 5515 5516 5517 5519 5522 5524 5526 5528 5529 5530 5531 5532 5532 5532 5532 5530 5529 5529 5530 5530 5529 5526 5523 5522 5521 5520 5519 5518 5515 5514 5514 5515 5515 5514 5514 5514 5515 5517
5504 5505 5506 5508 5510 5512 5513 5515 5517 5519 5521 5523 5525 5527 5528 5528 5528 5528 5528 5528 5527 5526 5527 5527 5525 5522 5520 5518 5517 5516 5516 5516 5513 5511 5511 5512 5512 5511 5511 5510 5511 5513
5500 5501 5502 5504 5506 5508 5510 5512 5513 5515 5517 5519 5521 5523 5523 5524 5524 5524 5524 5525 5524 5523 5523 5523 5522 5520 5517 5514 5513 5512 5511 5511 5509 5508 5509 5509 5508 5508 5508 5507 5507 5508